[[{"header":{"parameterUnit":"m.s-1","parameterCategory":1,"la1":30.2991,"la2":30.254,"lo1":-89.0895,"lo2":-89.0444,"dy":0.0017,"dx":0.0017,"nx":28,"ny":28,"refTime":"2023-09-19T03:00:00:Z","depth":0,"parameterNumber":2,"parameterNumberName":"U-component_of_WINDS"},"data":[0,0,0,0,0,0,0,0,0,0,0,0,0,0,0,0,0,0,0,0,0,0,0,0,0,0,0,0,0,0,0,0,0,0,0,0,0,0,0,0,0,0,0,0,0,0,0,0,0,0,0,0,0,0,0,0,0,0,-3.9101,-3.9106,0,-3.9573,-3.9578,-3.9584,-3.9701,-3.9698,-3.9695,-3.9692,-4.0179,-4.0195,-4.021,0,0,0,0,0,0,0,0,0,0,0,0,0,-3.8307,-3.8321,-3.91,-3.9106,-3.9112,-3.9572,-3.9578,-3.9585,-3.9702,-3.9698,-3.9694,-3.9691,-4.0174,-4.0193,-4.0212,0,0,0,0,0,0,0,0,0,0,0,0,0,-3.8702,-3.8325,-3.9099,-3.9226,-3.9242,-3.9571,-3.9579,-3.9587,-3.9702,-3.9698,-3.9693,-3.9689,-4.0168,-4.0191,-4.0214,-4.0452,0,0,-4.0287,-4.0297,0,0,0,0,0,0,0,0,-3.868,-3.8731,-3.9201,-3.9218,-3.9236,-3.9573,-3.9477,-3.9877,-3.9704,-3.9528,-3.9692,-3.9687,-3.9982,-4.002,-4.0119,-4.0475,-4.0496,-4.0289,-4.0303,-4.0314,-4.032,0,0,0,0,0,0,0,-3.8652,-3.8712,-3.9287,-3.9208,-3.9229,-3.9261,-3.9312,-3.9554,-3.9775,-3.9543,-3.9552,-3.9606,-3.999,-4.0096,-4.0131,-4.0503,-4.0288,-4.0309,-4.0324,-4.0333,-4.1084,-4.1089,0,0,0,0,0,0,-3.8602,-3.8688,-3.9272,-3.9302,-3.8941,-3.9279,-3.9336,-3.947,-3.9772,-3.9814,-3.961,-3.961,-4.0058,-4.0104,-4.0149,-4.0451,-4.0313,-4.0336,-4.0349,-4.1078,-4.1085,-4.1091,0,0,0,0,0,0,-3.8585,-3.8653,-3.9253,-3.8998,-3.9077,-3.9298,-3.9447,-3.9481,-3.9587,-3.9823,-3.9863,-3.9677,-4.0056,-4.0116,-4.0377,-4.047,-4.0346,-4.0368,-4.1071,-4.108,-4.1088,-4.1054,0,0,0,0,0,0,-3.8561,-3.8646,-3.8737,-3.8999,-3.909,-3.9471,-3.9452,-3.9494,-3.9627,-3.9632,-3.9897,-3.9936,-4.0057,-4.0341,-4.04,-4.05,-4.0386,-4.1064,-4.1075,-4.1085,-4.1048,-4.1061,-4.1071,0,0,0,0,0,-3.8532,-3.8708,-3.8741,-3.881,-3.9207,-3.9476,-3.9528,-3.9663,-3.9634,-3.9729,-3.9881,-3.9928,-4.0449,-4.0367,-4.0435,-4.0543,-4.1059,-4.1072,-4.1084,-4.1043,-4.1058,-4.1071,0,0,0,0,0,0,-3.8451,-3.8744,-3.8784,-3.9049,-3.9237,-3.9495,-3.9618,-3.9674,-3.9875,-3.9871,-4.0031,-4.0089,-4.0341,-4.0468,-4.0371,-4.0792,-4.0754,-4.0781,-4.0699,-4.0716,-4.0727,-4.0692,-4.0406,0,0,0,0,0,-3.8464,-3.8656,-3.8902,-3.9113,-3.9205,-3.9395,-3.9517,-3.9605,-3.9806,-3.9887,-4.0058,-4.0253,-4.0462,-4.0595,-4.08,-4.1067,-4.1129,-4.1175,-4.1186,-4.1195,-4.1217,-4.1372,-4.1397,-4.1133,-4.1133,-4.1133,0,0,-3.8492,-3.8677,-3.8788,-3.9101,-3.9257,-3.9455,-3.9461,-3.9669,-3.9819,-3.9919,-4.0177,-4.0309,-4.0538,-4.0804,-4.093,-4.0918,-4.1304,-4.1211,-4.1216,-4.1234,-4.1388,-4.1413,-4.1435,-4.1142,-4.114,-4.1139,0,0,-3.8646,-3.8803,-3.8998,-3.9154,-3.939,-3.9517,-3.9563,-3.9815,-3.9907,-4.0168,-4.0249,-4.043,-4.0784,-4.0945,-4.1073,-4.1292,-4.1344,-4.1355,-4.1416,-4.1565,-4.1586,-4.1605,-4.1687,-4.1714,-4.1376,-4.1376,-4.1376,0,-3.8652,-3.8952,-3.9091,-3.9297,-3.9434,-3.9534,-3.9734,-3.988,-4.017,-4.0264,-4.0246,-4.0696,-4.0857,-4.1164,-4.1218,-4.1317,-4.1379,-4.1326,-4.1571,-4.1592,-4.1613,-4.1692,-4.1722,-4.1375,-4.1375,-4.1376,-4.1376,0,-3.895,-3.9157,-3.9286,-3.9565,-3.9717,-3.9918,-4.0091,-4.0228,-4.0304,-4.0432,-4.07,-4.0896,-4.1145,-4.1224,-4.1299,-4.1544,-4.153,-4.1539,-4.1506,-4.1635,-4.1713,-4.1745,-4.1375,-4.1375,-4.1375,-4.1375,0,0,-3.9064,-3.942,-3.9465,-3.9595,-3.9864,-4.0028,-4.0236,-4.0479,-4.0595,-4.0793,-4.0975,-4.1274,-4.1287,-4.1432,-4.1527,-4.1657,-4.1824,-4.1653,-4.1661,-4.168,-4.2111,-4.2103,-4.2136,-4.1859,-4.1866,-4.1871,-4.2093,0,-3.9254,-3.9627,-3.976,-4.007,-4.0265,-4.0365,-4.0547,-4.0733,-4.086,-4.1047,-4.1187,-4.1399,-4.1397,-4.1486,-4.162,-4.1774,-4.1913,-4.176,-4.2032,-4.204,-4.1974,-4.2176,-4.2168,-4.2368,-4.2123,-4.2129,-4.2133,0,-3.9524,-3.9726,-4.0054,-4.0304,-4.0391,-4.0552,-4.0788,-4.0963,-4.1178,-4.1262,-4.1426,-4.1513,-4.1738,-4.1689,-4.2004,-4.1898,-4.2017,-4.2111,-4.2122,-4.2154,-4.2095,-4.2216,-4.2434,-4.2465,-4.2181,-4.2177,-4.2174,0,-3.9578,-3.9933,-4.0177,-4.0284,-4.058,-4.0692,-4.082,-4.1031,-4.117,-4.1376,-4.1469,-4.1698,-4.1825,-4.2002,-4.215,-4.21,-4.2453,-4.2415,-4.2531,-4.2528,-4.2602,-4.2596,-4.2845,-4.2674,-4.2674,-4.2673,-4.2673,0,-3.9777,-3.9974,-4.0205,-4.0355,-4.0582,-4.0734,-4.0955,-4.109,-4.1278,-4.1458,-4.1558,-4.1726,-4.1909,-4.2102,-4.2219,-4.2465,-4.252,-4.2596,-4.2626,-4.2589,-4.258,-4.2671,-4.2662,-4.2682,-4.268,-4.2678,-4.2677,0,-3.9875,-4.0037,-4.031,-4.0569,-4.0639,-4.0795,-4.1018,-4.1169,-4.1301,-4.1529,-4.1591,-4.1799,-4.2031,-4.2196,-4.2495,-4.2574,-4.2839,-4.2866,-4.2766,-4.2781,-4.2889,-4.2878,-4.3207,-4.326,-4.3051,-4.3053,-4.3054,0,-3.9992,-4.0147,-4.0423,-4.0551,-4.068,-4.0884,-4.1027,-4.1184,-4.1329,-4.1589,-4.171,-4.1949,-4.2149,-4.2516,-4.2695,-4.2926,-4.2961,-4.3061,-4.2996,-4.2956,-4.2967,-4.2957,-4.2975,-4.307,-4.3072,-4.3073,-4.3074,0,-4.0183,-4.0257,-4.0458,-4.0689,-4.0857,-4.1046,-4.1237,-4.1336,-4.1528,-4.1687,-4.1926,-4.208,-4.2387,-4.2625,-4.2874,-4.3009,-4.3076,-4.3093,-4.3133,-4.3098,-4.3035,-4.3074,-4.2795,-4.3085,-4.3084,-4.3083,-4.3082,-4.3082,-4.0298,-4.0442,-4.066,-4.0882,-4.1042,-4.1219,-4.1375,-4.1528,-4.1729,-4.1991,-4.2072,-4.2321,-4.2538,-4.2878,-4.3018,-4.3217,-4.3211,-4.3267,-4.3283,-4.3295,-4.3295,-4.3001,-4.3262,-4.3262,-4.3262,-4.3262,-4.3262,0,-4.0497,-4.0643,-4.0845,-4.111,-4.1286,-4.1332,-4.1547,-4.1692,-4.1909,-4.2105,-4.23,-4.2577,-4.2809,-4.3008,-4.3249,-4.337,-4.3407,-4.3429,-4.3423,-4.3454,-4.3284,-4.3227,-4.3395,-4.3395,-4.3395,-4.3395,-4.3395,-4.3395,-4.0621,-4.0869,-4.0969,-4.1299,-4.1444,-4.1688,-4.1808,-4.1973,-4.2131,-4.2435,-4.2628,-4.2756,-4.2955,-4.3212,-4.3429,-4.3482,-4.3567,-4.3582,-4.3642,-4.348,-4.3465,-4.345,-4.3398,-4.3599,-4.3599,-4.3796,-4.3798,-4.3799]},{"header":{"parameterUnit":"m.s-1","parameterCategory":1,"la1":30.2991,"la2":30.254,"lo1":-89.0895,"lo2":-89.0444,"dy":0.0017,"dx":0.0017,"nx":28,"ny":28,"refTime":"2023-09-19T03:00:00:Z","depth":0,"parameterNumber":3,"parameterNumberName":"V-component_of_WINDS"},"data":[0,0,0,0,0,0,0,0,0,0,0,0,0,0,0,0,0,0,0,0,0,0,0,0,0,0,0,0,0,0,0,0,0,0,0,0,0,0,0,0,0,0,0,0,0,0,0,0,0,0,0,0,0,0,0,0,0,0,-2.3557,-2.3556,0,-2.3448,-2.3447,-2.3445,-2.3323,-2.3321,-2.3319,-2.3318,-2.3213,-2.3212,-2.3211,0,0,0,0,0,0,0,0,0,0,0,0,0,-2.3666,-2.3664,-2.3557,-2.3555,-2.3554,-2.3448,-2.3447,-2.3445,-2.3323,-2.3321,-2.3319,-2.3317,-2.3213,-2.3212,-2.3211,0,0,0,0,0,0,0,0,0,0,0,0,0,-2.3594,-2.3664,-2.3557,-2.348,-2.3472,-2.3448,-2.3446,-2.3445,-2.3324,-2.3321,-2.3318,-2.3316,-2.3214,-2.3212,-2.3211,-2.3255,0,0,-2.3206,-2.3205,0,0,0,0,0,0,0,0,-2.3598,-2.359,-2.3493,-2.3486,-2.3477,-2.3396,-2.3446,-2.3382,-2.3324,-2.338,-2.3318,-2.3314,-2.3277,-2.327,-2.3255,-2.3251,-2.3246,-2.3206,-2.3205,-2.3204,-2.3203,0,0,0,0,0,0,0,-2.3604,-2.3594,-2.3514,-2.3492,-2.3482,-2.3454,-2.344,-2.3434,-2.3346,-2.3375,-2.3366,-2.3355,-2.3272,-2.3257,-2.3252,-2.3245,-2.3206,-2.3204,-2.3203,-2.3203,-2.3272,-2.3275,0,0,0,0,0,0,-2.3619,-2.3599,-2.3517,-2.3511,-2.3532,-2.3454,-2.3439,-2.3425,-2.3345,-2.333,-2.3357,-2.3349,-2.3261,-2.3254,-2.3248,-2.3296,-2.3204,-2.3202,-2.3201,-2.3269,-2.3273,-2.3276,0,0,0,0,0,0,-2.3622,-2.3613,-2.3522,-2.3552,-2.3538,-2.3455,-2.344,-2.3424,-2.3409,-2.3331,-2.3316,-2.3358,-2.3259,-2.325,-2.3254,-2.329,-2.3202,-2.32,-2.3266,-2.327,-2.3274,-2.3392,0,0,0,0,0,0,-2.3626,-2.3615,-2.3629,-2.3553,-2.3537,-2.3528,-2.3442,-2.3424,-2.3406,-2.3395,-2.3328,-2.3314,-2.3256,-2.3257,-2.3253,-2.3287,-2.3199,-2.3262,-2.3268,-2.3273,-2.3384,-2.34,-2.3413,0,0,0,0,0,-2.363,-2.3668,-2.3631,-2.3621,-2.3553,-2.353,-2.3521,-2.3452,-2.341,-2.3425,-2.3374,-2.3317,-2.3287,-2.3259,-2.3252,-2.3287,-2.326,-2.3266,-2.3272,-2.3378,-2.3397,-2.3412,0,0,0,0,0,0,-2.3753,-2.3657,-2.3614,-2.3628,-2.3588,-2.351,-2.3527,-2.3473,-2.3446,-2.3437,-2.3354,-2.334,-2.3354,-2.332,-2.3291,-2.3326,-2.3265,-2.3271,-2.3348,-2.3365,-2.3378,-2.3387,-2.3198,0,0,0,0,0,-2.3781,-2.3768,-2.3686,-2.3707,-2.3688,-2.3611,-2.3599,-2.3548,-2.3504,-2.3487,-2.3437,-2.3399,-2.338,-2.337,-2.3349,-2.3379,-2.3363,-2.3399,-2.3413,-2.3425,-2.3431,-2.3445,-2.3461,-2.3297,-2.3296,-2.3296,0,0,-2.384,-2.3786,-2.3784,-2.373,-2.3693,-2.3683,-2.3598,-2.3592,-2.3584,-2.3487,-2.3487,-2.3449,-2.3401,-2.3418,-2.3423,-2.339,-2.3473,-2.3433,-2.3443,-2.3443,-2.3454,-2.3469,-2.3483,-2.3301,-2.33,-2.3299,0,0,-2.3944,-2.3901,-2.3913,-2.3878,-2.3822,-2.377,-2.3774,-2.3703,-2.3673,-2.3672,-2.3598,-2.359,-2.356,-2.3529,-2.3509,-2.3601,-2.3547,-2.3596,-2.3671,-2.3686,-2.3698,-2.371,-2.3744,-2.3757,-2.3603,-2.3603,-2.3603,0,-2.4025,-2.4006,-2.3928,-2.3925,-2.3905,-2.3813,-2.3827,-2.3797,-2.3739,-2.3727,-2.3691,-2.3652,-2.3613,-2.3622,-2.3644,-2.3631,-2.3634,-2.3604,-2.3702,-2.3713,-2.3722,-2.3754,-2.3767,-2.3609,-2.3608,-2.3608,-2.3607,0,-2.4109,-2.4098,-2.4115,-2.4058,-2.4039,-2.4046,-2.397,-2.3961,-2.3912,-2.3866,-2.3866,-2.3816,-2.3783,-2.3781,-2.3735,-2.3784,-2.3766,-2.3717,-2.3655,-2.3746,-2.3774,-2.3785,-2.3618,-2.3616,-2.3614,-2.3613,0,0,-2.4288,-2.4187,-2.4195,-2.4168,-2.41,-2.409,-2.4093,-2.4059,-2.4054,-2.4016,-2.4018,-2.3995,-2.3949,-2.3927,-2.3876,-2.3889,-2.3966,-2.3838,-2.3836,-2.3865,-2.402,-2.4058,-2.4073,-2.393,-2.3932,-2.3933,-2.4024,0,-2.438,-2.4377,-2.4307,-2.4324,-2.4313,-2.4226,-2.4229,-2.4189,-2.4145,-2.4131,-2.4083,-2.4069,-2.4009,-2.3995,-2.4004,-2.3955,-2.3996,-2.3947,-2.3933,-2.3933,-2.3949,-2.4087,-2.4127,-2.4215,-2.4034,-2.4036,-2.4038,0,-2.4488,-2.4454,-2.4471,-2.4402,-2.4394,-2.4398,-2.4361,-2.4348,-2.4301,-2.4269,-2.4244,-2.4185,-2.4185,-2.4125,-2.4125,-2.4093,-2.4083,-2.4059,-2.406,-2.4057,-2.3992,-2.409,-2.4242,-2.4256,-2.4054,-2.4053,-2.4052,0,-2.4618,-2.4578,-2.4582,-2.4562,-2.4481,-2.4486,-2.4453,-2.4403,-2.4387,-2.4356,-2.4346,-2.4316,-2.43,-2.428,-2.4215,-2.4177,-2.4224,-2.4158,-2.4199,-2.4201,-2.4214,-2.4214,-2.4368,-2.4205,-2.4205,-2.4205,-2.4204,0,-2.473,-2.4743,-2.4639,-2.4643,-2.4656,-2.4576,-2.4592,-2.4551,-2.4507,-2.4502,-2.4426,-2.4424,-2.4338,-2.4326,-2.4276,-2.4285,-2.4278,-2.4254,-2.424,-2.4261,-2.4265,-2.4255,-2.4247,-2.4208,-2.4207,-2.4207,-2.4206,0,-2.4878,-2.4809,-2.4808,-2.4732,-2.4713,-2.4726,-2.4661,-2.4662,-2.4613,-2.4608,-2.4603,-2.4527,-2.4509,-2.4443,-2.441,-2.4376,-2.4402,-2.4375,-2.4417,-2.4409,-2.4454,-2.4451,-2.4608,-2.4625,-2.4451,-2.4452,-2.4454,0,-2.4955,-2.4963,-2.4886,-2.4876,-2.4846,-2.4832,-2.4814,-2.4736,-2.4722,-2.4669,-2.4677,-2.4653,-2.463,-2.4606,-2.455,-2.4525,-2.4498,-2.4554,-2.4494,-2.4515,-2.45,-2.4501,-2.4502,-2.4568,-2.457,-2.4572,-2.4574,0,-2.5098,-2.5063,-2.504,-2.5006,-2.4987,-2.4957,-2.4922,-2.4919,-2.4832,-2.4821,-2.4801,-2.4783,-2.4748,-2.4726,-2.4691,-2.4659,-2.4604,-2.4593,-2.4601,-2.4624,-2.4648,-2.4637,-2.4454,-2.459,-2.4589,-2.4587,-2.4586,-2.4586,-2.5214,-2.5217,-2.5164,-2.5142,-2.5107,-2.5076,-2.5073,-2.5023,-2.5004,-2.4968,-2.4924,-2.491,-2.4863,-2.481,-2.4783,-2.4773,-2.4741,-2.4753,-2.4756,-2.4761,-2.4772,-2.4649,-2.4766,-2.4765,-2.4765,-2.4764,-2.4764,0,-2.5355,-2.5316,-2.5296,-2.5249,-2.5232,-2.5177,-2.5136,-2.5126,-2.5114,-2.5074,-2.5052,-2.503,-2.5008,-2.4949,-2.4922,-2.4925,-2.4899,-2.4921,-2.4921,-2.4915,-2.4801,-2.4797,-2.4943,-2.4943,-2.4943,-2.4943,-2.4942,-2.4942,-2.5426,-2.5429,-2.5388,-2.5374,-2.5335,-2.5319,-2.5301,-2.5273,-2.5241,-2.5219,-2.5199,-2.516,-2.5113,-2.5082,-2.506,-2.5043,-2.5038,-2.5069,-2.5045,-2.494,-2.4923,-2.4906,-2.4902,-2.5068,-2.5068,-2.5159,-2.516,-2.5161]}]]